Regional Weather Roundup
Issued by NWS

Home | Current Version | Previous Version | Graphics & Text | Print | Product List | Glossary On
Versions: 1 2 3 4 5 6 7 8 9 10 11 12 13 14 15 16 17 18 19 20 21 22 23 24 25 26 27 28 29 30 31 32 33 34 35 36 37 38 39 40 41 42 43 44 45 46 47 48 49 50
000
ASUS43 KFSD 290610
RWRSD

WEATHER ROUNDUP FOR SOUTH DAKOTA
NATIONAL WEATHER SERVICE SIOUX FALLS SD
100 AM CDT MON MAY 29 2017

NOTE: "FAIR" INDICATES FEW OR NO CLOUDS BELOW 12,000 FEET WITH NO
SIGNIFICANT WEATHER AND/OR OBSTRUCTIONS TO VISIBILITY.


SDZ001>005-009-010-012>017-290700-
NORTHWEST AND NORTH CENTRAL SOUTH DAKOTA

CITY           SKY/WX    TMP DP  RH WIND       PRES   REMARKS
BUFFALO          N/A     51  34  52 N8        30.04R
FAITH            N/A     48  36  63 N6        30.05R
MOBRIDGE       CLEAR     51  40  65 NW9       29.95R
$$

SDZ012>016-024>037-041>051-057-063-072>074-290700-
SOUTHWEST AND SOUTH CENTRAL SOUTH DAKOTA

CITY           SKY/WX    TMP DP  RH WIND       PRES   REMARKS
RAPID CTY ARPT MOCLDY    54  40  59 NW12      30.09S
PIERRE         CLEAR     54  37  52 N14       29.97R
CUSTER         CLEAR     47  36  65 NW7       30.18S
ELLSWORTH AFB  MOCLDY    56  41  58 NW13      30.09S
PHILIP         PTCLDY    49  40  71 NW6       30.02S
PINE RIDGE     CLEAR     51  47  86 W6        30.10S
SPEARFISH      FAIR      57  41  54 W13       30.14R
WINNER         FAIR      51  47  86 NW6       29.99R
$$

SDZ004>011-016>023-039-040-290700-
NORTHEAST SOUTH DAKOTA

CITY           SKY/WX    TMP DP  RH WIND       PRES   REMARKS
ABERDEEN       CLEAR     52  40  63 NW10      29.90R
WATERTOWN      CLEAR     46  43  89 W8        29.86F
BROOKINGS      CLEAR     49  45  86 W8        29.90R
SISSETON         N/A     56  46  69 NW16      29.82F
$$

SDZ017-020-022-023-036>040-048>070-290700-
SOUTHEAST SOUTH DAKOTA

CITY           SKY/WX    TMP DP  RH WIND       PRES   REMARKS
SIOUX FALLS    CLEAR     52  47  83 W6        29.88F
HURON          CLEAR     45  43  93 NW6       29.92R
CHAMBERLAIN    MOCLDY    55  46  72 CALM      29.95S
MITCHELL       PTCLDY    54  48  80 W6        29.91F
YANKTON        PTCLDY    53  48  83 N3        29.92R
$$

ABBREVIATIONS USED IN REMARKS
   TC - TEMPERATURE IN CELSIUS
  WCI - WIND CHILL INDEX
   HX - HEAT INDEX
  VSB - VISIBILITY





USA.gov is the U.S. government's official web portal to all federal, state and local government web resources and services.